| time (UTC) | temp C | wind direction | speed KPH | gust KPH | rain 1hr cm | rain 24hr cm | rain mn cm | humidity % | barometer mb |
| 20260504100412 | 12 | 260 | 0.0 | 0.0 | 0.00 | 0.00 | 0.00 | 97 | 1016.3 |
| 20260504081806 | 13 | 261 | 0.0 | 0.0 | 0.00 | 0.00 | 0.00 | 95 | 1016.3 |
| 20260504081302 | 13 | 260 | 0.0 | 0.0 | 0.00 | 0.00 | 0.00 | 95 | 1016.3 |
| 20260504080759 | 13 | 260 | 0.0 | 0.0 | 0.00 | 0.00 | 0.00 | 95 | 1016.4 |
| 20260504080255 | 13 | 260 | 0.0 | 0.0 | 0.00 | 0.00 | 0.00 | 95 | 1016.5 |
| 20260504070223 | 14 | 260 | 0.0 | 0.0 | 0.00 | 0.00 | 0.00 | 93 | 1016.8 |
| 20260504060143 | 15 | 218 | 0.0 | 0.0 | 0.00 | 0.00 | 0.00 | 91 | 1016.9 |
| 20260504050611 | 16 | 259 | 0.0 | 0.0 | 0.00 | 0.00 | 0.00 | 87 | 1017.6 |
| 20260504050108 | 16 | 259 | 0.0 | 0.0 | 0.00 | 0.00 | 0.00 | 87 | 1017.6 |
| 20260504045605 | 16 | 259 | 0.0 | 0.0 | 0.00 | 0.00 | 0.00 | 86 | 1017.5 |
| 20260504045100 | 16 | 258 | 0.0 | 0.0 | 0.00 | 0.00 | 0.00 | 86 | 1017.6 |
| 20260504044558 | 16 | 258 | 0.0 | 0.0 | 0.00 | 0.00 | 0.00 | 85 | 1017.3 |
| 20260504044055 | 16 | 258 | 0.0 | 0.0 | 0.00 | 0.00 | 0.00 | 85 | 1017.5 |
| 20260504043552 | 16 | 258 | 0.0 | 0.0 | 0.00 | 0.00 | 0.00 | 85 | 1017.9 |
| 20260504043049 | 16 | 258 | 0.0 | 0.0 | 0.00 | 0.00 | 0.00 | 84 | 1017.8 |
| 20260504042546 | 16 | 293 | 0.0 | 0.0 | 0.00 | 0.00 | 0.00 | 83 | 1017.8 |
| 20260504042043 | 17 | 253 | 0.0 | 0.0 | 0.00 | 0.00 | 0.00 | 83 | 1018.1 |
| 20260504041539 | 17 | 253 | 0.0 | 0.0 | 0.00 | 0.00 | 0.00 | 82 | 1017.8 |
| 20260504041035 | 17 | 253 | 0.0 | 0.0 | 0.00 | 0.00 | 0.00 | 82 | 1017.8 |
| 20260504040533 | 17 | 253 | 0.0 | 0.0 | 0.00 | 0.00 | 0.00 | 80 | 1017.8 |
| 20260504040029 | 17 | 253 | 0.0 | 0.0 | 0.00 | 0.00 | 0.00 | 80 | 1017.9 |
| 20260504035526 | 17 | 253 | 0.0 | 0.0 | 0.00 | 0.00 | 0.00 | 79 | 1017.8 |
| 20260504035022 | 17 | 254 | 0.0 | 0.0 | 0.00 | 0.00 | 0.00 | 78 | 1017.7 |
| 20260504034520 | 17 | 255 | 0.0 | 0.0 | 0.00 | 0.00 | 0.00 | 77 | 1017.8 |
| 20260504034017 | 18 | 255 | 0.0 | 0.0 | 0.00 | 0.00 | 0.00 | 77 | 1017.7 |
| 20260504033515 | 18 | 256 | 0.0 | 0.0 | 0.00 | 0.00 | 0.00 | 76 | 1017.4 |
| 20260504033012 | 18 | 254 | 0.0 | 0.0 | 0.00 | 0.00 | 0.00 | 76 | 1017.7 |
| 20260504032509 | 18 | 227 | 0.0 | 0.0 | 0.00 | 0.00 | 0.00 | 75 | 1017.5 |
| 20260504032005 | 18 | 227 | 0.0 | 0.0 | 0.00 | 0.00 | 0.00 | 74 | 1017.7 |
| 20260504031502 | 18 | 227 | 0.0 | 0.0 | 0.00 | 0.00 | 0.00 | 73 | 1017.6 |
| 20260504030959 | 18 | 83 | 0.0 | 0.0 | 0.00 | 0.00 | 0.00 | 72 | 1017.4 |
| 20260504030456 | 19 | 227 | 0.0 | 0.0 | 0.00 | 0.00 | 0.00 | 72 | 1017.4 |
| 20260504025952 | 19 | 58 | 4.8 | 4.8 | 0.00 | 0.00 | 0.00 | 71 | 1017.4 |
| 20260504025449 | 19 | 191 | 1.6 | 1.6 | 0.00 | 0.00 | 0.00 | 71 | 1017.6 |
| 20260504024946 | 19 | 229 | 1.6 | 1.6 | 0.00 | 0.00 | 0.00 | 71 | 1017.4 |
| 20260504024443 | 19 | 315 | 3.2 | 3.2 | 0.00 | 0.00 | 0.00 | 71 | 1017.5 |
| 20260504023940 | 19 | 266 | 0.0 | 0.0 | 0.00 | 0.00 | 0.00 | 71 | 1017.2 |
| 20260504023436 | 19 | 204 | 0.0 | 1.6 | 0.00 | 0.00 | 0.00 | 70 | 1017.5 |
| 20260504022932 | 20 | 33 | 0.0 | 0.0 | 0.00 | 0.00 | 0.00 | 69 | 1017.4 |
| 20260504022429 | 20 | 322 | 1.6 | 1.6 | 0.00 | 0.00 | 0.00 | 69 | 1017.3 |
| 20260504021925 | 20 | 354 | 0.0 | 0.0 | 0.00 | 0.00 | 0.00 | 69 | 1017.1 |
| 20260504021423 | 20 | 62 | 3.2 | 3.2 | 0.00 | 0.00 | 0.00 | 68 | 1017.2 |
| 20260504020920 | 20 | 73 | 4.8 | 6.4 | 0.00 | 0.00 | 0.00 | 68 | 1017.2 |
| 20260504020416 | 20 | 108 | 0.0 | 1.6 | 0.00 | 0.00 | 0.00 | 68 | 1017.2 |
| 20260504015913 | 20 | 57 | 3.2 | 4.8 | 0.00 | 0.00 | 0.00 | 67 | 1017.3 |
| 20260504015409 | 20 | 343 | 1.6 | 1.6 | 0.00 | 0.00 | 0.00 | 67 | 1017.0 |
| 20260504014905 | 20 | 261 | 0.0 | 1.6 | 0.00 | 0.00 | 0.00 | 66 | 1016.9 |
| 20260504014401 | 20 | 32 | 0.0 | 0.0 | 0.00 | 0.00 | 0.00 | 65 | 1016.8 |
| 20260504013859 | 20 | 108 | 1.6 | 1.6 | 0.00 | 0.00 | 0.00 | 64 | 1016.7 |
| 20260504013357 | 20 | 68 | 3.2 | 3.2 | 0.00 | 0.00 | 0.00 | 64 | 1016.7 |
| 20260504012853 | 20 | 216 | 0.0 | 1.6 | 0.00 | 0.00 | 0.00 | 64 | 1016.4 |
| 20260504012351 | 20 | 61 | 1.6 | 3.2 | 0.00 | 0.00 | 0.00 | 62 | 1016.7 |
| 20260504011848 | 20 | 78 | 3.2 | 3.2 | 0.00 | 0.00 | 0.00 | 61 | 1016.5 |
| 20260504011344 | 21 | 207 | 0.0 | 0.0 | 0.00 | 0.00 | 0.00 | 60 | 1016.2 |
| 20260504010841 | 21 | 75 | 4.8 | 4.8 | 0.00 | 0.00 | 0.00 | 60 | 1016.2 |
| 20260504010336 | 21 | 172 | 3.2 | 4.8 | 0.00 | 0.00 | 0.00 | 60 | 1016.1 |
| 20260504005833 | 21 | 61 | 0.0 | 1.6 | 0.00 | 0.00 | 0.00 | 60 | 1016.2 |
| 20260504005330 | 21 | 112 | 0.0 | 0.0 | 0.00 | 0.00 | 0.00 | 61 | 1016.1 |
| 20260504004827 | 21 | 342 | 1.6 | 1.6 | 0.00 | 0.00 | 0.00 | 59 | 1016.0 |
| 20260504004325 | 21 | 349 | 3.2 | 3.2 | 0.00 | 0.00 | 0.00 | 58 | 1016.0 |
| 20260504003821 | 21 | 316 | 0.0 | 0.0 | 0.00 | 0.00 | 0.00 | 60 | 1015.9 |
| 20260504003318 | 21 | 91 | 3.2 | 3.2 | 0.00 | 0.00 | 0.00 | 58 | 1015.9 |
| 20260504002815 | 22 | 251 | 0.0 | 0.0 | 0.00 | 0.00 | 0.00 | 58 | 1016.0 |
| 20260504002312 | 22 | 209 | 1.6 | 1.6 | 0.00 | 0.00 | 0.00 | 57 | 1015.9 |
| 20260504001809 | 22 | 258 | 1.6 | 1.6 | 0.00 | 0.00 | 0.00 | 57 | 1015.9 |
| 20260504001306 | 22 | 65 | 3.2 | 3.2 | 0.00 | 0.00 | 0.00 | 56 | 1016.0 |
| 20260504000803 | 22 | 16 | 3.2 | 3.2 | 0.00 | 0.00 | 0.00 | 56 | 1015.9 |
| 20260504000300 | 22 | 109 | 1.6 | 1.6 | 0.00 | 0.00 | 0.00 | 56 | 1015.9 |
| 20260503235758 | 22 | 66 | 1.6 | 1.6 | 0.00 | 0.00 | 0.00 | 57 | 1015.8 |
| 20260503235255 | 22 | 61 | 1.6 | 3.2 | 0.00 | 0.00 | 0.00 | 57 | 1015.8 |
| 20260503234753 | 22 | 61 | 3.2 | 3.2 | 0.00 | 0.00 | 0.00 | 56 | 1015.7 |
| 20260503234251 | 23 | 22 | 1.6 | 1.6 | 0.00 | 0.00 | 0.00 | 56 | 1015.7 |
| 20260503233747 | 23 | 76 | 1.6 | 3.2 | 0.00 | 0.00 | 0.00 | 56 | 1015.8 |
| 20260503233243 | 23 | 330 | 0.0 | 0.0 | 0.00 | 0.00 | 0.00 | 57 | 1015.6 |
| 20260503232740 | 23 | 221 | 0.0 | 1.6 | 0.00 | 0.00 | 0.00 | 58 | 1015.5 |
| 20260503232238 | 23 | 10 | 1.6 | 1.6 | 0.00 | 0.00 | 0.00 | 57 | 1015.5 |
| 20260503231736 | 23 | 236 | 0.0 | 0.0 | 0.00 | 0.00 | 0.00 | 57 | 1015.6 |
| 20260503231232 | 23 | 200 | 0.0 | 1.6 | 0.00 | 0.00 | 0.00 | 55 | 1015.6 |
| 20260503230728 | 23 | 281 | 1.6 | 1.6 | 0.00 | 0.00 | 0.00 | 54 | 1015.4 |
| 20260503230226 | 24 | 75 | 3.2 | 3.2 | 0.00 | 0.00 | 0.00 | 53 | 1015.3 |
| 20260503225723 | 24 | 62 | 4.8 | 4.8 | 0.00 | 0.00 | 0.00 | 52 | 1015.4 |
| 20260503225223 | 24 | 48 | 6.4 | 6.4 | 0.00 | 0.00 | 0.00 | 52 | 1015.3 |
| 20260503224720 | 25 | 231 | 0.0 | 1.6 | 0.00 | 0.00 | 0.00 | 52 | 1015.5 |
| 20260503224218 | 25 | 221 | 0.0 | 0.0 | 0.00 | 0.00 | 0.00 | 52 | 1015.3 |
| 20260503223715 | 25 | 252 | 1.6 | 1.6 | 0.00 | 0.00 | 0.00 | 52 | 1015.4 |
| 20260503223213 | 25 | 239 | 0.0 | 0.0 | 0.00 | 0.00 | 0.00 | 51 | 1015.4 |
| 20260503222709 | 25 | 79 | 1.6 | 3.2 | 0.00 | 0.00 | 0.00 | 50 | 1015.5 |
| 20260503222207 | 25 | 212 | 3.2 | 3.2 | 0.00 | 0.00 | 0.00 | 51 | 1015.4 |
| 20260503221706 | 25 | 58 | 3.2 | 4.8 | 0.00 | 0.00 | 0.00 | 51 | 1015.4 |
| 20260503221203 | 25 | 308 | 3.2 | 4.8 | 0.00 | 0.00 | 0.00 | 50 | 1015.4 |
| 20260503220659 | 25 | 52 | 3.2 | 3.2 | 0.00 | 0.00 | 0.00 | 52 | 1015.5 |
| 20260503220156 | 25 | 241 | 0.0 | 1.6 | 0.00 | 0.00 | 0.00 | 51 | 1015.3 |
| 20260503215653 | 25 | 161 | 1.6 | 1.6 | 0.00 | 0.00 | 0.00 | 51 | 1015.5 |
| 20260503215149 | 25 | 65 | 4.8 | 6.4 | 0.00 | 0.00 | 0.00 | 48 | 1015.4 |
| 20260503214648 | 26 | 244 | 1.6 | 1.6 | 0.00 | 0.00 | 0.00 | 48 | 1015.4 |
| 20260503214143 | 26 | 229 | 1.6 | 1.6 | 0.00 | 0.00 | 0.00 | 47 | 1015.3 |
| 20260503213637 | 25 | 257 | 1.6 | 1.6 | 0.00 | 0.00 | 0.00 | 50 | 1015.4 |
| 20260503213133 | 26 | 236 | 0.0 | 0.0 | 0.00 | 0.00 | 0.00 | 49 | 1015.3 |
| 20260503212631 | 26 | 286 | 1.6 | 3.2 | 0.00 | 0.00 | 0.00 | 50 | 1015.3 |
| 20260503212128 | 26 | 243 | 3.2 | 4.8 | 0.00 | 0.00 | 0.00 | 49 | 1015.2 |
| 20260503211626 | 27 | 262 | 4.8 | 4.8 | 0.00 | 0.00 | 0.00 | 46 | 1015.2 |
| 20260503211121 | 27 | 193 | 3.2 | 3.2 | 0.00 | 0.00 | 0.00 | 46 | 1015.2 |
| 20260503210618 | 27 | 211 | 1.6 | 3.2 | 0.00 | 0.00 | 0.00 | 43 | 1015.1 |
| 20260503210115 | 27 | 355 | 3.2 | 4.8 | 0.00 | 0.00 | 0.00 | 40 | 1015.3 |
| 20260503205611 | 27 | 254 | 1.6 | 3.2 | 0.00 | 0.00 | 0.00 | 41 | 1015.4 |
| 20260503205107 | 27 | 63 | 0.0 | 3.2 | 0.00 | 0.00 | 0.00 | 41 | 1015.4 |
| 20260503204604 | 27 | 343 | 1.6 | 3.2 | 0.00 | 0.00 | 0.00 | 43 | 1015.5 |
| 20260503204102 | 27 | 219 | 1.6 | 3.2 | 0.00 | 0.00 | 0.00 | 43 | 1015.6 |
| 20260503203558 | 27 | 237 | 4.8 | 4.8 | 0.00 | 0.00 | 0.00 | 41 | 1015.6 |
| 20260503203055 | 27 | 65 | 9.7 | 14.5 | 0.00 | 0.00 | 0.00 | 39 | 1015.7 |
| 20260503202553 | 27 | 247 | 0.0 | 0.0 | 0.00 | 0.00 | 0.00 | 45 | 1015.8 |
| 20260503202051 | 26 | 45 | 6.4 | 6.4 | 0.00 | 0.00 | 0.00 | 43 | 1015.8 |
| 20260503201549 | 26 | 275 | 1.6 | 1.6 | 0.00 | 0.00 | 0.00 | 43 | 1015.9 |
| 20260503201046 | 27 | 345 | 3.2 | 3.2 | 0.00 | 0.00 | 0.00 | 44 | 1016.0 |
| 20260503200542 | 27 | 222 | 0.0 | 1.6 | 0.00 | 0.00 | 0.00 | 44 | 1015.9 |
| 20260503200039 | 27 | 236 | 3.2 | 4.8 | 0.00 | 0.00 | 0.00 | 43 | 1016.1 |
| 20260503195536 | 26 | 303 | 1.6 | 1.6 | 0.00 | 0.00 | 0.00 | 48 | 1015.8 |
| 20260503195033 | 26 | 59 | 3.2 | 4.8 | 0.00 | 0.00 | 0.00 | 44 | 1016.0 |
| 20260503194530 | 26 | 329 | 4.8 | 4.8 | 0.00 | 0.00 | 0.00 | 44 | 1016.2 |
| 20260503194030 | 26 | 31 | 1.6 | 1.6 | 0.00 | 0.00 | 0.00 | 48 | 1016.4 |
| 20260503193527 | 26 | 78 | 6.4 | 9.7 | 0.00 | 0.00 | 0.00 | 44 | 1016.3 |
| 20260503193022 | 26 | 41 | 3.2 | 4.8 | 0.00 | 0.00 | 0.00 | 48 | 1016.6 |
| 20260503192518 | 25 | 17 | 3.2 | 3.2 | 0.00 | 0.00 | 0.00 | 50 | 1016.6 |
| 20260503192014 | 25 | 84 | 4.8 | 6.4 | 0.00 | 0.00 | 0.00 | 47 | 1016.6 |
| 20260503191511 | 25 | 250 | 1.6 | 1.6 | 0.00 | 0.00 | 0.00 | 49 | 1016.8 |
| 20260503191008 | 26 | 202 | 0.0 | 1.6 | 0.00 | 0.00 | 0.00 | 50 | 1016.8 |
| 20260503190505 | 26 | 266 | 1.6 | 1.6 | 0.00 | 0.00 | 0.00 | 45 | 1016.9 |
| 20260503190002 | 26 | 217 | 6.4 | 9.7 | 0.00 | 0.00 | 0.00 | 47 | 1016.9 |
| 20260503185458 | 27 | 77 | 0.0 | 1.6 | 0.00 | 0.00 | 0.00 | 44 | 1017.1 |
| 20260503184957 | 26 | 70 | 1.6 | 3.2 | 0.00 | 0.00 | 0.00 | 47 | 1017.3 |
| 20260503184454 | 26 | 278 | 1.6 | 3.2 | 0.00 | 0.00 | 0.00 | 47 | 1017.3 |
| 20260503183950 | 25 | 71 | 9.7 | 12.9 | 0.00 | 0.00 | 0.00 | 49 | 1017.6 |
| 20260503183447 | 26 | 27 | 3.2 | 3.2 | 0.00 | 0.00 | 0.00 | 48 | 1017.4 |
| 20260503182944 | 26 | 159 | 1.6 | 3.2 | 0.00 | 0.00 | 0.00 | 50 | 1017.4 |
| 20260503182443 | 25 | 42 | 1.6 | 3.2 | 0.00 | 0.00 | 0.00 | 48 | 1017.6 |
| 20260503181940 | 25 | 343 | 4.8 | 6.4 | 0.00 | 0.00 | 0.00 | 53 | 1017.5 |
| 20260503181437 | 26 | 39 | 6.4 | 6.4 | 0.00 | 0.00 | 0.00 | 51 | 1017.4 |
| 20260503180933 | 25 | 351 | 6.4 | 9.7 | 0.00 | 0.00 | 0.00 | 50 | 1017.5 |
| 20260503180432 | 25 | 13 | 1.6 | 1.6 | 0.00 | 0.00 | 0.00 | 55 | 1017.6 |
| 20260503175928 | 25 | 177 | 4.8 | 4.8 | 0.00 | 0.00 | 0.00 | 52 | 1017.7 |
| 20260503175426 | 25 | 23 | 1.6 | 1.6 | 0.00 | 0.00 | 0.00 | 52 | 1017.7 |
| 20260503174921 | 25 | 329 | 0.0 | 0.0 | 0.00 | 0.00 | 0.00 | 53 | 1017.8 |
| 20260503174420 | 26 | 216 | 3.2 | 4.8 | 0.00 | 0.00 | 0.00 | 49 | 1017.8 |
| 20260503173920 | 25 | 272 | 3.2 | 3.2 | 0.00 | 0.00 | 0.00 | 53 | 1017.6 |
| 20260503173416 | 25 | 273 | 3.2 | 4.8 | 0.00 | 0.00 | 0.00 | 53 | 1018.2 |
| 20260503172913 | 25 | 79 | 8.0 | 11.3 | 0.00 | 0.00 | 0.00 | 53 | 1018.1 |
| 20260503172411 | 25 | 67 | 9.7 | 11.3 | 0.00 | 0.00 | 0.00 | 51 | 1018.0 |
| 20260503171907 | 25 | 324 | 3.2 | 3.2 | 0.00 | 0.00 | 0.00 | 56 | 1018.3 |
| 20260503171404 | 24 | 343 | 4.8 | 6.4 | 0.00 | 0.00 | 0.00 | 55 | 1018.3 |
| 20260503170901 | 24 | 43 | 6.4 | 6.4 | 0.00 | 0.00 | 0.00 | 53 | 1018.3 |
| 20260503170357 | 25 | 243 | 1.6 | 3.2 | 0.00 | 0.00 | 0.00 | 53 | 1018.2 |
| 20260503150749 | 21 | 64 | 9.7 | 14.5 | 0.00 | 0.00 | 0.00 | 66 | 1018.4 |
| 20260503150245 | 21 | 283 | 4.8 | 6.4 | 0.00 | 0.00 | 0.00 | 67 | 1018.4 |
| 20260503140210 | 20 | 325 | 4.8 | 6.4 | 0.00 | 0.00 | 0.00 | 73 | 1018.4 |
| 20260503131140 | 17 | 346 | 3.2 | 4.8 | 0.00 | 0.00 | 0.00 | 89 | 1018.1 |
| 20260503130637 | 17 | 176 | 1.6 | 3.2 | 0.00 | 0.00 | 0.00 | 91 | 1017.7 |
| 20260503130135 | 17 | 339 | 1.6 | 1.6 | 0.00 | 0.00 | 0.00 | 93 | 1017.8 |
| 20260503110527 | 14 | 295 | 0.0 | 0.0 | 0.00 | 0.00 | 0.00 | 98 | 1016.8 |